Location: Embalse del Alberche
(40.4236°N, 4.5774°W)
Time: 04:14:30
(UTC+00:00)

Daily predictions for brighter satellites

Satellite Brightness Start Highest point End
(mag) Time Altitude Azimuth Time Altitude Azimuth Time Altitude Azimuth
MetOp-A 4.3 00:06:33 42° NE 00:06:33 42° NE 00:09:31 10° N
Cosmos 2082 Rocket 2.0 00:03:04 10° NNW 00:08:43 83° WSW 00:09:02 78° SSW
Cosmos 2278 Rocket 3.6 00:06:22 21° WSW 00:09:06 32° WNW 00:14:09 10° N
Timation 2 Rocket 4.5 00:08:20 37° WSW 00:10:34 54° WNW 00:16:58 10° NNE
SL-8 R/B 3.8 00:15:46 70° NNW 00:15:46 70° NNW 00:20:30 10° ENE
Cosmos 1110 Rocket 3.9 00:11:26 10° NNW 00:16:32 79° W 00:16:32 79° W
Cosmos 1610 Rocket 4.4 00:11:19 10° N 00:17:43 86° E 00:18:49 64° SSE
Cosmos 1452 Rocket 3.5 00:15:19 10° NNW 00:20:35 71° ENE 00:20:55 68° E
Cosmos 2154 Rocket 4.1 00:15:05 10° NNW 00:21:10 60° W 00:22:04 54° SW
Cosmos 2184 Rocket 4.2 00:15:13 10° NNW 00:21:19 55° W 00:22:19 50° SW
NOSS 3-1 (C) 3.3 00:22:32 48° E 00:22:32 48° E 00:26:43 10° NE
CZ-3B R/B 3.4 00:28:33 54° S 00:30:07 71° SE 00:50:31 10° NE
Cosmos 967 Rocket 4.4 00:29:04 64° SSW 00:30:11 85° ESE 00:36:41 10° NNE
Cosmos 972 Rocket 4.0 00:28:52 10° NNW 00:34:28 71° ENE 00:34:56 66° ESE
COSMOS 2406 3.2 00:30:31 10° NNW 00:36:14 77° ENE 00:37:01 65° SE
Cosmos 2341 Rocket 4.3 00:30:47 10° N 00:36:57 59° E 00:38:22 48° SE
ARIANE 5 R/B 4.4 00:37:48 23° WNW 00:37:48 23° WNW 00:40:36 10° NW
IRIDIUM 104 4.2 00:34:06 10° N 00:39:20 84° W 00:39:29 82° SW
SL-4 R/B 4.3 00:42:23 13° NE 00:42:23 13° NE 00:42:50 10° NE
SL-8 Rocket 4.1 00:34:33 10° N 00:40:41 66° E 00:41:58 53° SE
Cosmos 2297 3.8 00:45:21 61° SE 00:45:43 62° ESE 00:51:23 10° NNE
IRIDIUM 114 4.3 00:43:16 10° N 00:48:28 69° W 00:48:37 68° WSW
GEOS 3 Rocket 4.1 00:50:02 45° W 00:50:02 45° W 00:54:37 10° NW
Cosmos 2369 Rocket 2.0 00:50:46 74° SSE 00:51:11 80° ESE 00:56:47 10° NNE
Lacrosse 4 Rocket 3.9 00:50:48 10° N 00:53:43 18° NE 00:56:30 10° E
CZ-2C R/B 2.7 00:55:17 58° W 00:55:17 58° W 01:00:23 10° NNW
Cosmos 2228 Rocket 3.4 00:59:27 60° NW 00:59:27 60° NW 01:03:22 10° N
ADEOS Rocket 4.4 00:59:01 10° NE 01:03:56 25° E 01:05:49 21° ESE
Okean 1-7 4.3 01:06:59 29° WNW 01:06:59 29° WNW 01:10:18 10° NNW
Cosmos 1818 3.5 01:09:43 65° SE 01:10:02 67° ESE 01:15:27 10° NE
Geosat 4.1 01:05:52 10° NNE 01:10:48 63° WNW 01:11:26 57° W
Meteor 1-24 Rocket 4.2 01:13:42 46° WSW 01:14:49 52° WNW 01:20:43 10° N
ARIANE 6 FM1 Upper Stage 3.4 01:16:12 44° NW 01:16:14 44° NW 01:20:12 10° NNE
Meteor 2-5 Rocket 4.0 01:16:25 50° WSW 01:17:22 56° WNW 01:23:07 10° N
Cosmos 1300 Rocket 4.0 01:14:39 10° N 01:18:52 50° E 01:19:07 49° E
Cosmos 1315 Rocket 3.9 01:16:41 10° NNW 01:19:10 34° NW 01:19:10 34° NW
CRYOSAT 2 4.3 01:21:32 66° W 01:21:37 66° W 01:26:29 10° N
Cosmos 1703 Rocket 3.6 01:25:41 68° WNW 01:25:41 68° WNW 01:29:50 10° N
Cosmos 1302 Rocket 4.4 01:21:30 10° NNW 01:26:24 47° W 01:26:24 47° W
Cosmos 2181 Rocket 4.0 01:25:44 54° SSW 01:27:14 75° W 01:33:38 10° N
ATLAS 5 CENTAUR R/B 3.2 01:30:58 16° NW 01:30:58 16° NW 01:32:34 10° N
Nadezhda 3 Rocket 4.1 01:29:56 44° SSE 01:31:52 65° E 01:38:02 10° NNE
Cosmos 2366 rocket 4.3 01:28:27 10° NNW 01:34:34 51° W 01:35:49 45° SW
Cosmos 2263 4.4 01:35:19 47° WSW 01:36:37 59° WNW 01:42:14 10° NNE
SJ 16-02 3.2 01:39:46 18° ESE 01:40:34 19° E 01:43:32 10° NE
Cosmos 921 Rocket 3.7 01:41:10 40° ESE 01:41:25 40° E 01:45:21 10° NNE
Kakehashi 4.4 01:40:50 40° S 01:41:44 41° SSE 01:53:24 10° E
USA 308 3.7 01:41:52 34° NW 01:42:04 35° NNW 01:45:55 10° NE
PSLV R/B 3.8 01:38:33 10° N 01:42:06 73° NNW 01:42:06 73° NNW
Nimbus 7 Rocket 4.5 01:39:53 10° NNE 01:45:45 67° ESE 01:47:36 44° SSE
ACS3 Solar Sail 2.7 01:41:33 10° N 01:46:30 32° WNW 01:48:09 27° W
Cosmos 2218 Rocket 4.5 01:42:01 10° NNW 01:47:57 44° W 01:49:16 39° WSW
Cosmos 1821 Rocket 4.0 01:43:25 10° NNW 01:49:24 59° W 01:50:51 46° SW
COSMOS 2455 2.9 01:47:53 46° SW 01:49:41 71° WNW 01:55:42 10° NNE
Spot 1 4.3 01:45:13 10° NNE 01:50:12 89° ESE 01:51:01 62° SSW
Meteor 2-8 Rocket 4.4 01:44:10 10° N 01:50:19 78° W 01:52:18 46° S
IDEFIX/ARIANE 42P 2.7 01:50:29 10° NNE 01:55:43 69° ESE 01:57:12 46° SSE
Cosmos 220 Rocket 4.2 01:53:53 10° NNW 01:57:31 51° WNW 01:57:31 51° WNW
Cosmos 1992 Rocket 4.5 01:57:27 10° NW 02:02:16 40° WSW 02:02:24 39° WSW
NOSS 3-1 (A) 3.2 02:01:56 44° WSW 02:03:07 57° NW 02:08:25 10° NNE
Cosmos 1833 4.1 02:05:56 10° NNW 02:11:32 65° WSW 02:13:33 39° S
Cosmos 1140 Rocket 3.6 02:11:29 45° SW 02:12:49 62° WNW 02:17:53 10° NNE
Cosmos 1656 4.3 02:11:01 31° SSE 02:13:10 46° ESE 02:18:24 10° NE
Resurs 1-4 Rocket 3.9 02:09:18 10° NE 02:13:31 24° E 02:17:13 12° SE
Cosmos 1346 Rocket 2.3 02:14:57 83° SW 02:15:04 86° W 02:18:43 10° N
SL-4 R/B 3.9 02:15:44 14° NW 02:17:15 18° NNW 02:19:29 10° NNE
H-2A R/B 4.0 02:14:58 10° NE 02:18:58 22° E 02:22:51 10° SE
Cosmos 1782 Rocket 4.1 02:17:43 10° NNW 02:21:48 39° W 02:22:02 38° W
Cosmos 371 Rocket 3.2 02:23:01 44° SSW 02:24:34 84° ESE 02:29:25 10° NNE
Cosmos 304 Rocket 3.7 02:25:25 45° SSW 02:26:51 80° WNW 02:31:38 10° NNE
Cosmos 1763 Rocket 3.9 02:22:36 10° NNW 02:27:37 59° ENE 02:32:33 10° SSE
Cosmos 381 Rocket 4.5 02:25:02 35° SSW 02:27:56 79° WNW 02:34:21 10° NNE
Lacrosse 4 Rocket 1.6 02:27:41 10° NW 02:31:42 46° WSW 02:31:50 45° WSW
Cosmos 2297 Rocket 4.2 02:30:27 10° N 02:35:21 29° ENE 02:40:12 10° ESE
Cosmos 2369 Rocket 4.3 02:32:31 10° W 02:35:52 16° NW 02:39:19 10° N
Cosmos 1025 Rocket 3.6 02:34:41 27° SSE 02:36:49 54° E 02:41:04 10° NNE
MOZ.5/SAFIR/RUBIN 5/SL-8 4.3 02:35:43 13° SSE 02:39:42 58° ENE 02:44:14 10° N
FENGYUN 3A 3.8 02:38:52 10° N 02:44:08 58° WNW 02:46:39 30° SW
CZ-2D R/B 3.1 02:41:13 10° NNE 02:46:25 44° E 02:50:45 14° SSE
MSX 4.4 02:41:23 10° N 02:46:48 44° WNW 02:49:36 26° WSW
ADEOS Rocket 3.5 02:43:48 10° N 02:49:44 46° WNW 02:52:44 25° SW
DMSP B5D2-2 4.3 02:45:26 10° SSE 02:50:38 72° ENE 02:55:54 10° N
ATLAS 3B R/B 4.2 02:45:20 11° SSE 02:51:34 32° ESE 02:58:14 10° NE
NOSS 2-2 (C) 4.3 02:50:49 10° NNW 02:54:43 58° NE 03:00:07 10° SE
ALOS 2.9 02:51:22 10° NNE 02:55:47 50° E 02:59:08 17° S
SL-24 DEB 4.1 02:54:34 20° S 02:57:34 86° E 03:02:00 10° N
Cosmos 2360 4.2 02:54:41 26° SSW 02:57:59 86° WNW 03:03:44 10° NNE
MOS 1-B Rocket 4.4 02:53:17 10° N 02:59:04 47° WNW 03:02:16 23° SW
Cosmos 2242 Rocket 4.3 02:57:51 28° WSW 02:59:21 37° WNW 03:03:27 10° N
NPP 4.3 02:54:53 10° N 02:59:57 42° WNW 03:02:48 23° SW
Cosmos 405 Rocket 2.6 03:06:51 35° WSW 03:07:22 39° WNW 03:10:10 10° N
Cosmos 1378 Rocket 4.2 03:05:42 26° WSW 03:07:22 37° WNW 03:11:21 10° N
Cosmos 2292 Rocket 3.4 03:06:53 20° SSE 03:08:37 47° E 03:11:42 10° NNE
Cosmos 2084 Rocket 3.9 03:07:47 22° S 03:09:59 48° ESE 03:13:53 10° NE
Cosmos 374 Rocket 4.3 03:09:55 26° SSW 03:12:08 80° SE 03:15:53 10° NE
Okean 2 Rocket 3.0 03:09:25 10° N 03:13:48 88° E 03:18:10 10° S
Envisat 3.0 03:09:43 10° N 03:14:46 71° WNW 03:18:23 19° SSW
SeaSat 1 3.1 03:10:27 10° SE 03:15:14 59° ENE 03:20:03 10° NNW
SJ 16-02 2.2 03:16:15 21° WSW 03:18:20 33° WNW 03:22:12 10° N
Cosmos 1727 Rocket 4.2 03:12:40 10° S 03:18:53 75° E 03:25:05 10° N
CENTAUR R/B 4.2 03:11:34 10° NNW 03:19:49 55° NE 03:29:06 10° SE
Cosmos 407 Rocket 4.4 03:18:01 19° WSW 03:21:00 33° WNW 03:25:37 10° N
Cosmos 2151 Rocket 3.8 03:18:07 10° NNW 03:22:30 53° W 03:26:00 15° SSW
USA 229 DEB 3.7 03:18:15 16° SSW 03:22:54 63° ESE 03:29:16 10° NE
USA 229 3.7 03:18:16 16° SSW 03:22:56 62° ESE 03:29:19 10° NE
Gbstr 26 Del rocket 4.5 03:19:27 18° SSW 03:24:37 63° SE 03:32:14 10° ENE
Meteor 2-16 Rocket 4.5 03:21:04 10° S 03:27:09 84° E 03:33:15 10° N
Meteor 2-21 Rocket 4.5 03:22:53 12° S 03:28:44 82° W 03:34:59 10° N
Cosmos 1862 4.2 03:25:32 10° SSE 03:28:50 39° E 03:32:10 10° NNE
Cosmos 2221 Rocket 3.7 03:27:47 17° SSW 03:31:11 60° W 03:35:39 10° N
SL-16 R/B 4.2 03:26:32 10° SE 03:32:02 35° ENE 03:37:34 10° N
Cosmos 841 Rocket 4.3 03:28:50 10° N 03:33:57 55° ENE 03:39:00 10° SE
IDEFIX/ARIANE 42P 4.5 03:31:32 10° NNW 03:34:32 16° WNW 03:37:32 10° W
Cosmos 2173 Rocket 4.5 03:28:35 10° N 03:34:51 64° E 03:41:00 10° SSE
METEOR-M 4.4 03:30:26 10° NNE 03:35:46 69° ESE 03:41:05 10° S
Cosmos 1190 Rocket 4.2 03:32:23 16° SW 03:36:28 58° WNW 03:41:38 10° NNE
Cosmos 540 Rocket 4.1 03:32:33 10° NW 03:37:05 33° W 03:41:36 10° SSW
Cosmos 1954 Rocket 4.1 03:34:15 15° SSW 03:38:31 66° WNW 03:43:39 10° NNE
ADEOS II 2.1 03:37:52 10° N 03:43:06 78° WNW 03:48:19 10° SSW
Cosmos 2100 Rocket 4.2 03:37:04 10° N 03:43:22 77° E 03:49:33 10° SSE
Cosmos 1697 Rocket 2.7 03:40:53 11° SSW 03:46:18 90° WNW 03:51:57 10° NNE
Sich 1 Rocket 3.9 03:44:05 10° NNW 03:48:29 50° W 03:52:49 10° SSW
Cosmos 2227 Rocket 3.5 03:43:50 10° NNW 03:49:15 45° ENE 03:54:37 10° SE
Okean 1 Rocket 3.6 03:46:55 10° NNW 03:50:55 37° W 03:54:53 10° SSW
Atlas 2A Centaur Rocket 3.9 03:49:51 11° SSW 03:52:43 20° SSE 03:59:34 10° ESE
H-2A R/B 2.2 03:49:00 10° S 03:52:47 68° WSW 03:56:41 10° NNW
Resurs 1-4 Rocket 2.7 03:48:29 10° N 03:53:23 41° WNW 03:58:15 10° SW
Cosmos 1782 2.4 03:51:44 10° NNW 03:55:13 65° W 03:58:41 10° S
Cosmos 2251 Rocket 4.3 03:51:25 12° SW 03:56:00 38° WNW 04:01:00 10° N
USA 234 3.4 03:50:12 10° NE 03:56:47 80° SE 04:03:19 10° SW
Cosmos 2058 2.9 03:53:31 10° S 03:57:22 75° E 04:01:16 10° N
H-2A R/B 2.6 03:53:29 10° N 03:58:27 44° WNW 04:03:16 10° SW
Cosmos 332 Rocket 4.2 03:54:22 11° SW 03:58:43 46° WNW 04:03:18 10° N
Meteor 1-27 4.3 03:53:47 10° NNW 03:59:27 63° W 04:05:10 10° S
Cosmos 1437 Rocket 2.4 03:58:56 10° N 04:02:23 85° E 04:05:47 10° S
USA 281 3.9 03:58:39 10° SE 04:05:05 61° ENE 04:11:33 10° NNW
Cosmos 1975 Rocket 3.0 04:01:51 10° SSW 04:06:08 77° W 04:10:26 10° N
CZ-2C R/B 4.0 04:02:25 10° NNE 04:06:45 34° E 04:11:09 10° SSE
H-2A R/B 3.3 04:04:23 10° NNE 04:08:24 41° E 04:12:24 10° S
Cosmos 1802 Rocket 4.3 04:02:07 10° N 04:08:31 81° E 04:14:56 10° S
Cosmos 2228 2.9 04:05:48 10° NNW 04:10:01 74° W 04:14:13 10° S
